This demonstration page uses our WeatherBlox Daily Observations layout. Learn more.

Left ArrowRight Arrow

39.12711, -84.51439

Hourly Observations for June 21, 2018

Temp ( °F °C ) Dew Point ( °F °C ) Humidity (%) Winds ( mph kmh ) Pressure ( in mb ) Visibility ( mi km ) Precip ( " mm )
12:53 am 00:53 Mostly Clear 76 24.4 72 22.2 88 88 W 6 9 29.82 1010 10 16 N/A
1:53 am 01:53 Mostly Cloudy 76 24.4 72 22.2 88 88 NNE 5 7 29.82 1010 10 16 N/A
2:53 am 02:53 Clear 74 23.3 72 22.2 94 94 N N/A 29.80 1009 10 16 N/A
3:40 am 03:40 Cloudy with Nearby Thunderstorms 74 23.3 73 22.8 97 97 S 7 11 29.80 1009 10 16 N/A
3:53 am 03:53 Cloudy with Nearby Thunderstorms 75 23.9 73 22.8 94 94 SSW 10 17 29.79 1009 10 16 N/A
4:12 am 04:12 Mostly Cloudy 74 23.3 71 21.7 91 91 SSW 6 9 29.80 1009 10 16 N/A
4:53 am 04:53 Partly Cloudy with Light Rain 73 22.8 72 22.2 96 96 SSW 3 6 29.80 1009 10 16 N/A
5:04 am 05:04 Partly Cloudy with Nearby Thunderstorms 72 22.2 72 22.2 100 100 S 5 7 29.80 1009 10 16 N/A
5:46 am 05:46 Cloudy with Light Rain 73 22.8 72 22.2 96 96 S 7 11 29.80 1009 9 14 0.03 0.76
5:53 am 05:53 Cloudy with Heavy Rain 73 22.8 72 22.2 96 96 S 3 6 29.79 1009 4 6 0.06 1.52
6:13 am 06:13 Cloudy with Nearby Thunderstorms 72 22.2 72 22.2 100 100 SSW 3 6 29.83 1010 10 16 N/A
6:22 am 06:22 Cloudy with Thunderstorms 72 22.2 72 22.2 100 100 SSW 6 9 29.83 1010 3 5 0.06 1.52
6:24 am 06:24 Cloudy with Strong Thunderstorms 72 22.2 72 22.2 100 100 S 6 9 29.83 1010 2 3 0.14 3.56
6:36 am 06:36 Cloudy with Light Rain 72 22.2 72 22.2 100 100 S 5 7 29.83 1010 2 3 0.28 7.11
6:38 am 06:38 Cloudy with Light Rain 72 22.2 72 22.2 100 100 S 6 9 29.83 1010 3 5 0.28 7.11
6:53 am 06:53 Cloudy 72 22.2 72 22.2 100 100 N N/A 29.81 1009 10 16 0.28 7.11
7:27 am 07:27 Mostly Cloudy 72 22.2 72 22.2 100 100 S 5 7 29.83 1010 8 13 N/A
7:53 am 07:53 Mostly Cloudy 74 23.3 74 23.3 100 100 SSW 6 9 29.80 1009 8 13 N/A
8:04 am 08:04 Cloudy 74 23.3 73 22.8 97 97 SSW 7 11 29.80 1009 10 16 N/A
8:53 am 08:53 Mostly Cloudy 75 23.9 73 22.8 94 94 S 3 6 29.80 1009 10 16 N/A
9:53 am 09:53 Mostly Cloudy with Light Rain 75 23.9 73 22.8 94 94 SSE 5 7 29.80 1009 10 16 0.01 0.25
10:53 am 10:53 Cloudy with Light Rain 75 23.9 74 23.3 96 96 S 7 11 29.79 1009 7 11 0.02 0.51
11:00 am 11:00 Cloudy with Light Rain 75 23.9 74 23.3 96 96 S 6 9 29.80 1009 5 8 0.01 0.25
11:10 am 11:10 Cloudy with Rain 75 23.9 74 23.3 96 96 S 10 17 29.80 1009 2 3 0.03 0.76
11:20 am 11:20 Cloudy with Heavy Rain 73 22.8 72 22.2 96 96 SSE 7 11 29.80 1009 1 2 0.11 2.79
11:29 am 11:29 Cloudy with Light Rain 73 22.8 73 22.8 100 100 S 3 6 29.80 1009 3 5 0.12 3.05
11:36 am 11:36 Cloudy with Light Rain 73 22.8 73 22.8 100 100 S 5 7 29.80 1009 6 10 0.12 3.05
11:53 am 11:53 Mostly Cloudy 74 23.3 73 22.8 97 97 S 6 9 29.78 1009 10 16 0.12 3.05
12:01 pm 12:01 Mostly Cloudy 74 23.3 73 22.8 97 97 S 5 7 29.80 1009 10 16 N/A
12:53 pm 12:53 Cloudy 76 24.4 74 23.3 94 94 SE 3 6 29.77 1008 10 16 N/A
1:53 pm 13:53 Cloudy with Light Rain 76 24.4 74 23.3 94 94 SSE 6 9 29.75 1007 6 10 0.02 0.51
2:06 pm 14:06 Cloudy with Rain 75 23.9 74 23.3 96 96 SE 6 9 29.77 1008 3 4 0.01 0.25
2:12 pm 14:12 Cloudy with Rain 75 23.9 74 23.3 96 96 SSE 7 11 29.77 1008 2 3 0.04 1.02
2:31 pm 14:31 Cloudy with Light Rain 73 22.8 72 22.2 96 96 S 5 7 29.77 1008 3 5 0.11 2.79
2:38 pm 14:38 Cloudy with Light Rain 74 23.3 73 22.8 97 97 S 3 6 29.77 1008 4 6 0.11 2.79
2:53 pm 14:53 Cloudy with Light Rain 74 23.3 73 22.8 97 97 SSW 3 6 29.75 1007 5 8 0.12 3.05
3:19 pm 15:19 Cloudy with Light Rain 75 23.9 73 22.8 94 94 N N/A 29.74 1007 8 13 N/A
3:35 pm 15:35 Cloudy with Light Rain 75 23.9 73 22.8 94 94 ESE 3 6 29.74 1007 9 14 N/A
3:42 pm 15:42 Cloudy with Light Rain 74 23.3 73 22.8 97 97 SE 7 11 29.74 1007 7 11 N/A
3:53 pm 15:53 Mostly Cloudy 75 23.9 73 22.8 94 94 VRB 5 7 29.73 1007 10 16 N/A
4:26 pm 16:26 Cloudy with Light Rain 74 23.3 73 22.8 97 97 N N/A 29.74 1007 3 5 0.01 0.25
4:53 pm 16:53 Cloudy 74 23.3 73 22.8 97 97 S 8 13 29.72 1006 10 16 0.01 0.25
5:21 pm 17:21 Mostly Cloudy 75 23.9 72 22.2 90 90 SSW 10 17 29.71 1006 10 16 0.01 0.25
5:39 pm 17:39 Mostly Cloudy 75 23.9 72 22.2 90 90 WSW 17 28 29.71 1006 9 14 0.01 0.25
5:53 pm 17:53 Cloudy 75 23.9 72 22.2 90 90 WSW 12 19 29.71 1006 10 16 0.01 0.25
6:03 pm 18:03 Cloudy 75 23.9 72 22.2 90 90 WSW 12 19 29.71 1006 10 16 N/A
6:29 pm 18:29 Cloudy 75 23.9 73 22.8 94 94 W 7 11 29.71 1006 10 16 N/A
6:53 pm 18:53 Mostly Cloudy 77 25 73 22.8 88 88 NNW 9 15 29.70 1006 10 16 N/A
7:53 pm 19:53 Mostly Cloudy 76 24.4 72 22.2 88 88 NNE 3 6 29.72 1006 10 16 N/A
8:53 pm 20:53 Partly Cloudy 75 23.9 72 22.2 90 90 N N/A 29.72 1007 10 16 N/A
9:53 pm 21:53 Mostly Clear 73 22.8 72 22.2 96 96 E 3 6 29.72 1006 10 16 N/A
10:34 pm 22:34 Mostly Cloudy 73 22.8 72 22.2 96 96 N N/A 29.74 1007 10 16 N/A
10:51 pm 22:51 Cloudy 72 22 72 22 100 100 N N/A 29.74 1007 8 13 N/A
10:53 pm 22:53 Mostly Cloudy 72 22.2 72 22.2 100 100 N N/A 29.74 1007 8 13 N/A
11:15 pm 23:15 Partly Cloudy 72 22.2 72 22.2 100 100 N N/A 29.74 1007 8 13 N/A
11:53 pm 23:53 Mostly Clear with Mist and Fog 71 21.7 71 21.7 100 100 N N/A 29.73 1007 5 8 N/A

Powered by AerisWeather